ARIANE 5 R/B, 42952

Orbit data source: Space-Track

ARIANE 5 R/B, 42952 is space debris in HEO originally from a launch on Fri, 29 Sep 2017 UTC launched from the French Guiana (FRGUI). Debris objects in space refer to the collection of defunct objects orbiting the Earth. Examples of debris include non-operational satellites, rocket bodies, and fragments generated from explosions, collisions, or faulty payload assembly.

Loading next visibility...
Identifier
42952, 2017-059C
Orbit
HEO
Country
Flag of FRFR
Related business
Manufacturer
ArianeGroup
Mission
Spacecraft
Bus & Motor
ESC-A, Unknown motor
Mass
~5,000 kg wet, ~5,000 kg dry
Launch date (UTC)
2017-09-29 (8 years ago)
Launch vehicle
Unknown
Launch site
French Guiana (FRGUI)
Object type
Payload
Rocket body
Debris
Shape & HBR
Cyl + 1 Nozzle, 3.5 m
Radar Cross Section
41.627 m², Large (>1 m²)

Expand to show TLE details & history
Last TLE update: 19 hours ago

TLE from 19 hours ago
0 ARIANE 5 R/B
1 42952U 17059C   25245.47590783  .00006458  00000-0  15913-2 0  9999
2 42952   6.3588   4.1402 7128098 112.5032 333.6761  2.47750476 67895
Epoch: 2025-09-02T11:25Z
TLE epoch observation values (Epoch: 2025-09-02T11:25:18.436Z)
Latitude
Longitude
-148.83969°
Altitude
9,180.262 km
Speed
5.827 km/s
True Right ascension
00h 17m 24s
True Declination
0° 00' 00"
Sunlit
Object was in full shadow at epoch
Visualization orbit readout
Latitude
Unknown
Longitude
Unknown
Altitude
Unknown
Speed
Unknown
Apparent Right ascension
Unknown
Apparent Declination
Unknown
Sunlit
N/A
Visualization observer readout
Local Sidereal Time
22:13:44
Azimuth
Unknown
Elevation
Unknown
Doppler factor
Unknown
Orbital elements
Apogee altitude
33,146.738 km
Perigee altitude
249.077 km
Semi-major axis
23,076.044 km
Eccentricity
0.71281
Inclination
6.3588°
RAAN
4.1402°
Arg. of periapsis
112.5032°
True anomaly
247.94453°
Mean anomaly
333.6761°
Eccentric anomaly
297.42506°
Mean motion
0.61916 °/min
Orbital period
581.44 mins
BSTAR
0.0015913
Loading maneuver chart data...
Computing Atmospheric mass density...
Loading historical data...
Loading historical data...
Loading historical data...
Loading historical data...
Loading historical data...
Loading historical data...
Loading historical data...
Other satellites on launch #59 in the year 2017 (2017-09-29 UTC)

Documentation

Showing up to 5 results
|